星链-35416(STARLINK-35416)

导读 | 豆包AI

STARLINK-35416是美国SpaceX公司星链星座的低轨通信卫星,于2025年10月29日发射。星链项目旨在为全球提供高速低延迟宽带互联网服务,该卫星采用平板设计,搭载Ku/Ka波段通信载荷与氪工质霍尔推进器,具备自主避撞能力,设计寿命约5-7年,退役后将主动离轨再入大气层烧毁,助力星链网络覆盖拓展。

基本信息
目录编号:
66248
目录名称:
STARLINK-35416
国际标识:
2025-245Q
轨道中心:
EARTH
卫星名称:
星链-35416
卫星全名:
星链-35416(STARLINK-35416)
卫星状态:
在轨 (已飞行157 天)
发射日期:
2025-10-29 UTC
国别 :
美国 (US)
星等 :
--
轨道信息
数据来源 国际轨道数据
星历时间: 2026-04-03T22:54:22+0800
17小时前
查看轨道信息
半长轴: 6853.54km
偏心率: 0.0001551
轨道倾角: 53.157°
近地点辐角 111.327°
升交点赤经 168.090°
平近点角 248.790°
近地点: 474.34km
远地点: 476.466km
周期: 94.109分钟
每日圈数: 15.301372
详细信息
固有亮度:
5
最大亮度:
2.5
卫星平台:
Starlink V1.0
覆盖范围:
全球
运营商:
太空探索技术公司
运营商所在国:
美国
制造商(研发单位):
太空探索技术公司
制造商所在国:
美国
使用方式:
暂无
卫星简介
Starlink 计划是 SpaceX 推出的全球卫星互联网项目,通过发射低轨道卫星,为全球尤其是偏远地区提供高速、低延迟的互联网服务。自 2019 年起,Starlink 已部署数千颗卫星,旨在缩小全球数字鸿沟,推动互联网普及。该项目还为军事、航空等行业提供通信支持,带来广泛经济效益。
2D轨道图
3D轨道图
轨道高度分析图
轨道倾角分析图
轨道综合分析图
查看轨道综合分析图